Location: Casper
(42.8670°N, 106.3130°W)
Time: 09:01:19
(UTC-06:00)

Daily predictions for brighter satellites

Satellite Brightness Start Highest point End
(mag) Time Altitude Azimuth Time Altitude Azimuth Time Altitude Azimuth
Cosmos 923 Rocket 4.1 21:12:49 10° NNW 21:18:03 72° ENE 21:23:13 10° SSE
Cosmos 1833 4.2 21:17:03 10° SSW 21:22:43 72° ESE 21:28:24 10° NNE
Cosmos 2333 Rocket 4.0 21:21:35 10° N 21:25:35 19° NE 21:29:33 10° E
ATLAS CENTAUR R/B 4.1 21:24:06 10° WNW 21:26:17 14° WSW 21:28:23 10° SW
Cosmos 1939 Rocket 2.8 21:23:05 10° SSE 21:27:01 81° ENE 21:30:55 10° N
DELTA 2 R/B(2) 4.4 21:25:41 10° SW 21:27:01 21° SSE 21:28:43 10° ESE
Cosmos 1437 Rocket 2.9 21:23:56 10° NNW 21:27:45 75° W 21:31:36 10° S
H-2A R/B 2.2 21:24:05 10° SSE 21:28:36 89° E 21:33:10 10° NNW
USA 229 DEB 3.9 21:21:42 10° SW 21:28:38 84° NW 21:35:42 10° NE
USA 229 3.9 21:21:48 10° SW 21:28:45 84° NW 21:35:48 10° NE
Cosmos 773 Rocket 4.3 21:25:17 10° NNW 21:30:28 71° WSW 21:35:40 10° S
Meteor 2-20 4.5 21:25:36 10° S 21:31:45 86° E 21:37:54 10° N
PSLV R/B 3.5 21:33:12 10° SSE 21:36:11 48° ENE 21:39:09 10° N
SPOT 5 2.9 21:33:16 10° SSE 21:37:48 67° ENE 21:42:37 10° N
COSMOS 2428 3.2 21:32:27 10° NNW 21:37:58 49° ENE 21:43:18 11° SE
MetOp-A 4.4 21:33:51 10° SSE 21:39:05 58° ENE 21:44:20 10° N
Cosmos 304 Rocket 3.8 21:37:57 10° NNW 21:42:48 83° WSW 21:47:36 10° SSE
Cosmos 2219 Rocket 3.3 21:40:54 10° N 21:45:49 30° NE 21:50:35 11° ESE
ARGOS 3.9 21:41:02 10° SE 21:45:57 39° ENE 21:50:56 10° N
NOSS 3-1 (A) 3.9 21:42:58 10° S 21:48:19 38° ESE 21:54:09 10° NE
Cosmos 1437 2.8 21:49:53 10° SSW 21:53:09 81° W 21:56:28 10° N
Nadezhda 2 Rocket 4.4 21:48:54 10° S 21:55:00 74° E 22:01:06 10° N
Cosmos 1726 2.9 21:51:52 10° N 21:55:25 38° ENE 21:58:06 16° SE
Cosmos 1328 3.7 21:52:42 10° S 21:56:39 87° ESE 22:00:38 10° N
Cosmos 2237 4.3 21:53:52 10° NNW 21:59:38 77° ENE 22:04:31 14° SSE
CZ-4C R/B 4.5 21:59:54 15° ESE 22:01:54 24° ENE 22:04:44 10° NNE
Envisat 3.7 22:00:54 10° S 22:05:50 52° W 22:10:49 10° NNW
Cosmos 292 Rocket 4.4 22:01:27 10° N 22:06:00 42° ENE 22:09:18 17° SE
Delta 2 Rocket 4.1 22:04:50 10° WSW 22:07:48 25° S 22:09:00 20° SSE
ATLAS 2AS CENTAUR R/B 3.9 22:05:37 12° SSE 22:10:56 27° ESE 22:17:15 10° NE
Cosmos 2219 3.3 22:05:40 10° SSW 22:11:25 86° WNW 22:17:13 10° NNE
Cosmos 1271 Rocket 3.4 22:09:30 10° N 22:13:09 40° ENE 22:15:19 21° SE
Cosmos 2237 Rocket 3.2 22:12:18 10° N 22:17:33 36° ENE 22:21:31 16° ESE
Meteor 1-4 Rocket 3.0 22:14:11 10° N 22:17:52 49° ENE 22:19:51 23° SE
Cosmos 2333 4.2 22:12:11 10° NNW 22:17:56 80° ENE 22:22:12 19° SSE
Cosmos 2151 4.1 22:14:34 10° SSW 22:18:35 44° WNW 22:22:38 10° N
Cosmos 1703 3.9 22:16:40 21° SSE 22:18:45 38° E 22:22:24 10° NNE
SL-14 R/B 3.2 22:15:32 13° S 22:18:59 73° E 22:22:59 10° NNE
Cosmos 2242 Rocket 3.8 22:16:57 10° N 22:21:23 59° E 22:24:15 21° SSE
Iridium 2 4.3 22:22:19 24° SE 22:24:06 38° E 22:27:41 10° NNE
Terra 2.7 22:22:18 19° SE 22:25:05 37° ENE 22:29:27 10° N
ATLAS 3B R/B 4.0 22:18:52 10° NNW 22:25:12 33° NE 22:31:10 10° E
Cosmos 1937 Rocket 3.7 22:21:29 13° S 22:26:02 52° ESE 22:31:05 10° NNE
Lacrosse 4 Rocket 3.8 22:23:49 10° N 22:26:26 15° NE 22:29:04 10° E
Cosmos 2298 Rocket 4.0 22:22:41 10° SSW 22:28:01 87° ESE 22:33:22 10° NNE
Meteor 1-27 4.4 22:22:32 10° NNW 22:28:13 76° W 22:32:54 15° S
Cosmos 2360 Rocket 3.6 22:23:49 10° NW 22:28:47 32° WSW 22:33:44 10° SSW
Sich 1 3.0 22:25:43 13° S 22:29:36 86° E 22:34:02 10° N
CARTOSAT-1 4.2 22:28:15 23° SE 22:30:29 40° ENE 22:34:33 10° N
USA 245 2.9 22:31:03 27° SSW 22:32:04 45° WSW 22:34:19 10° NNW
NOAA 11 4.2 22:29:08 18° SSE 22:33:15 86° WSW 22:38:44 10° NNW
Cosmos 2058 3.7 22:29:18 10° SSW 22:33:16 49° WNW 22:37:16 10° N
Cosmos 1633 Rocket 3.0 22:29:42 14° S 22:33:24 89° E 22:37:47 10° N
NOSS 3-1 (C) 3.5 22:28:50 10° SW 22:34:43 81° NW 22:41:19 10° NE
Cosmos 1626 3.1 22:35:44 27° ESE 22:36:39 31° E 22:40:00 10° NNE
Cosmos 990 Rocket 4.3 22:33:44 21° SSE 22:36:50 45° ESE 22:41:44 10° NNE
DELTA 2 DEB (DPAF) 4.1 22:36:20 25° SSE 22:38:56 77° ENE 22:43:26 10° N
OAO 2 Rocket 4.2 22:36:09 10° SW 22:40:47 31° SSE 22:42:20 26° SE
SL-08 RB Rocket 3.9 22:44:58 23° S 22:47:44 66° WSW 22:52:14 10° NNW
CZ-4 R/B 4.0 22:43:04 10° N 22:48:01 75° WNW 22:52:31 12° SSW
Tiangong 1 1.0 22:45:58 10° WSW 22:49:01 58° SSE 22:49:21 53° SE
COSMOS 2455 3.9 22:43:50 10° NNW 22:49:23 36° NE 22:53:21 17° ESE
YAOGAN 6 4.4 22:47:15 13° SSW 22:49:55 26° W 22:53:01 10° NW
Cosmos 1300 4.2 22:46:43 10° NNW 22:50:10 32° W 22:52:56 14° SSW
CZ-4B R/B 4.3 22:45:19 10° N 22:50:27 54° WNW 22:55:29 10° SW
H-2A R/B 2.1 22:48:40 26° SSE 22:51:44 77° ENE 22:57:12 10° N
Cosmos 2227 Rocket 2.2 22:53:14 21° S 22:57:02 60° ESE 23:02:37 10° NNE
IGS 5A 3.4 23:05:39 40° SSE 23:07:08 88° ENE 23:11:21 10° NNW
Cosmos 192 4.4 23:02:59 10° NNW 23:07:53 68° ENE 23:09:49 36° SE
Cosmos 1898 Rocket 4.4 23:04:17 10° SW 23:09:15 47° WNW 23:14:19 10° N
Cosmos 2333 Rocket 2.2 23:04:47 10° NNW 23:10:33 81° WSW 23:13:18 33° SSE
SL-16 R/B 3.0 23:05:41 10° NNW 23:11:06 42° ENE 23:13:53 25° ESE
SeaSat 1 3.9 23:09:19 18° E 23:12:00 29° NE 23:16:13 10° N
Cosmos 1455 2.1 23:09:03 10° N 23:12:52 81° W 23:13:51 48° S
Cosmos 1241 Rocket 4.3 23:06:50 10° SSW 23:13:00 80° ESE 23:19:18 10° NE
Cosmos 1125 Rocket 4.0 23:13:45 35° SE 23:15:11 43° ESE 23:20:13 10° NNE
SAR-Lupe-2 3.5 23:14:58 53° S 23:15:42 76° WSW 23:19:18 10° NNW
Okean 1-7 4.2 23:17:52 10° NNE 23:21:36 28° ENE 23:22:21 27° E
COSMOS 2428 4.3 23:17:23 10° NW 23:21:53 25° WSW 23:25:20 14° SSW
Nadezhda 1 Rocket 4.2 23:17:27 10° NNW 23:23:27 64° W 23:26:56 26° SSW
Cosmos 2297 Rocket 2.1 23:21:13 30° S 23:24:02 70° ESE 23:29:42 10° NNE
Cosmos 1470 Rocket 4.2 23:22:50 24° SW 23:25:09 50° WNW 23:29:23 10° N
Cosmos 1933 Rocket 4.2 23:23:56 24° SW 23:26:22 52° W 23:30:45 10° N
Cosmos 1703 Rocket 3.8 23:24:36 10° N 23:28:54 55° E 23:29:46 46° ESE
Cosmos 2219 Rocket 3.0 23:24:38 10° NW 23:29:52 42° WSW 23:32:19 27° SSW
Cosmos 1869 3.6 23:26:54 10° NNW 23:30:55 61° W 23:31:52 45° SSW
Cosmos 2221 Rocket 3.7 23:34:25 10° N 23:38:58 68° E 23:39:53 53° SE
Cosmos 372 Rocket 4.5 23:39:23 39° SE 23:40:07 41° ESE 23:45:02 10° NNE
ERBS 2.9 23:38:38 28° WSW 23:40:16 59° NW 23:43:43 10° NE
Aureole 2 Rocket 4.4 23:38:03 10° NNE 23:40:22 18° ENE 23:40:24 18° ENE
Cosmos 1709 Rocket 3.9 23:42:19 34° S 23:45:10 86° W 23:51:19 10° N
Meteor 1-26 Rocket 4.4 23:41:53 10° N 23:47:28 62° ENE 23:49:14 42° SE
Cosmos 1980 4.5 23:43:48 10° NW 23:49:04 41° WSW 23:51:01 31° SSW
CZ-4C R/B 4.4 23:49:18 29° ENE 23:49:18 29° ENE 23:52:25 10° N
IKONOS-2 4.4 23:54:11 65° SE 23:54:46 81° ENE 23:59:05 10° N
